GW2089 Weather Reports


time (UTC)temp
C
wind
direction
speed
KPH
gust
KPH
rain 1hr
cm
rain 24hr
cm
rain mn
cm
humidity
%
barometer
mb
20260508135620 16 4 4.8 4.8 0.00 0.00 0.00 28 1019.2
20260508135117 16 63 1.6 3.2 0.00 0.00 0.00 27 1019.5
20260508134614 16 45 1.6 3.2 0.00 0.00 0.00 29 1019.5
20260508134111 15 35 0.0 0.0 0.00 0.00 0.00 41 1019.6
20260508133608 16 43 3.2 3.2 0.00 0.00 0.00 38 1019.5
20260508133105 15 353 0.0 0.0 0.00 0.00 0.00 40 1019.5
20260508132603 16 302 0.0 0.0 0.00 0.00 0.00 40 1019.5
20260508132059 16 347 0.0 0.0 0.00 0.00 0.00 40 1019.4
20260508131554 16 356 0.0 0.0 0.00 0.00 0.00 38 1019.4
20260508131052 16 0 0.0 0.0 0.00 0.00 0.00 41 1019.6
20260508130548 16 347 0.0 0.0 0.00 0.00 0.00 40 1019.3
20260508130045 16 338 0.0 0.0 0.00 0.00 0.00 40 1019.4
20260508125540 15 284 0.0 0.0 0.00 0.00 0.00 40 1019.6
20260508125038 16 12 4.8 9.7 0.00 0.00 0.00 41 1019.3
20260508124536 16 336 0.0 0.0 0.00 0.00 0.00 40 1019.4
20260508124033 16 50 1.6 1.6 0.00 0.00 0.00 40 1019.6
20260508123532 16 340 1.6 1.6 0.00 0.00 0.00 41 1019.3
20260508123028 16 329 0.0 1.6 0.00 0.00 0.00 40 1019.3
20260508122525 16 281 1.6 3.2 0.00 0.00 0.00 39 1019.4
20260508122022 16 18 1.6 4.8 0.00 0.00 0.00 39 1019.7
20260508121520 17 345 1.6 1.6 0.00 0.00 0.00 38 1019.7
20260508121018 17 266 0.0 1.6 0.00 0.00 0.00 40 1019.5
20260508120515 17 339 1.6 3.2 0.00 0.00 0.00 39 1019.6
20260508120013 17 276 0.0 0.0 0.00 0.00 0.00 36 1019.7
20260508115510 18 352 0.0 0.0 0.00 0.00 0.00 36 1019.6
20260508115007 17 273 0.0 1.6 0.00 0.00 0.00 36 1019.5
20260508114504 17 184 0.0 1.6 0.00 0.00 0.00 38 1019.5
20260508114000 17 87 1.6 3.2 0.00 0.00 0.00 37 1019.9
20260508113458 17 7 1.6 3.2 0.00 0.00 0.00 36 1019.7
20260508112955 16 353 1.6 1.6 0.00 0.00 0.00 36 1019.7
20260508112451 17 331 0.0 1.6 0.00 0.00 0.00 35 1019.6
20260508111948 16 331 1.6 1.6 0.00 0.00 0.00 38 1019.7
20260508111445 16 271 0.0 0.0 0.00 0.00 0.00 37 1019.6
20260508110942 17 352 1.6 1.6 0.00 0.00 0.00 38 1019.9
20260508110440 16 255 1.6 1.6 0.00 0.00 0.00 38 1019.5
20260508105939 16 15 1.6 1.6 0.00 0.00 0.00 37 1019.7
20260508105436 16 353 0.0 1.6 0.00 0.00 0.00 40 1020.0
20260508104933 15 295 0.0 0.0 0.00 0.00 0.00 43 1019.8
20260508104431 15 224 0.0 1.6 0.00 0.00 0.00 45 1020.1
20260508103927 15 347 0.0 0.0 0.00 0.00 0.00 44 1019.9
20260508103424 14 336 0.0 0.0 0.00 0.00 0.00 44 1020.1
20260508102921 15 288 4.8 8.0 0.00 0.00 0.00 43 1020.2
20260508102420 15 270 3.2 3.2 0.00 0.00 0.00 43 1020.3
20260508101917 15 1 0.0 1.6 0.00 0.00 0.00 43 1020.1
20260508101414 15 42 3.2 4.8 0.00 0.00 0.00 41 1020.3
20260508100911 15 318 0.0 0.0 0.00 0.00 0.00 41 1020.2
20260508100410 15 289 0.0 0.0 0.00 0.00 0.00 42 1020.4
20260508095905 15 293 1.6 1.6 0.00 0.00 0.00 43 1020.2
20260508095403 15 349 1.6 1.6 0.00 0.00 0.00 40 1020.3
20260508094859 15 274 0.0 1.6 0.00 0.00 0.00 41 1020.3
20260508094356 15 15 1.6 1.6 0.00 0.00 0.00 40 1020.2
20260508093853 15 0 1.6 1.6 0.00 0.00 0.00 39 1020.0
20260508093351 15 321 0.0 1.6 0.00 0.00 0.00 41 1020.1
20260508092848 15 42 0.0 0.0 0.00 0.00 0.00 40 1020.0
20260508092346 14 170 0.0 1.6 0.00 0.00 0.00 42 1020.1
20260508091844 14 72 0.0 0.0 0.00 0.00 0.00 41 1019.9
20260508091340 15 261 1.6 1.6 0.00 0.00 0.00 40 1020.4
20260508090838 15 359 0.0 1.6 0.00 0.00 0.00 38 1020.3
20260508090337 14 20 1.6 3.2 0.00 0.00 0.00 36 1020.4
20260508085832 14 56 6.4 8.0 0.00 0.00 0.00 32 1020.3
20260508085329 13 12 4.8 8.0 0.00 0.00 0.00 34 1020.4
20260508084825 14 41 6.4 11.3 0.00 0.00 0.00 31 1020.4
20260508084322 13 37 3.2 3.2 0.00 0.00 0.00 33 1020.6
20260508083820 13 7 4.8 8.0 0.00 0.00 0.00 32 1020.2
20260508083317 13 53 1.6 3.2 0.00 0.00 0.00 33 1020.4
20260508082817 13 340 1.6 3.2 0.00 0.00 0.00 34 1020.4
20260508082315 13 14 1.6 3.2 0.00 0.00 0.00 34 1020.4
20260508081812 13 14 1.6 3.2 0.00 0.00 0.00 36 1020.6
20260508081309 13 10 0.0 1.6 0.00 0.00 0.00 35 1020.5
20260508080806 13 34 1.6 4.8 0.00 0.00 0.00 35 1020.3
20260508080304 13 50 1.6 4.8 0.00 0.00 0.00 35 1020.5
20260508075800 12 54 0.0 1.6 0.00 0.00 0.00 37 1020.4
20260508075257 12 50 1.6 3.2 0.00 0.00 0.00 37 1020.5
20260508074755 12 5 6.4 9.7 0.00 0.00 0.00 37 1020.5
20260508074251 12 48 8.0 9.7 0.00 0.00 0.00 39 1020.4
20260508073749 12 18 0.0 0.0 0.00 0.00 0.00 40 1020.5
20260508073247 12 44 1.6 3.2 0.00 0.00 0.00 38 1020.6
20260508072742 12 33 1.6 1.6 0.00 0.00 0.00 41 1020.3
20260508072239 12 320 1.6 1.6 0.00 0.00 0.00 42 1020.2
20260508071737 12 30 3.2 4.8 0.00 0.00 0.00 41 1020.0
20260508071235 11 74 3.2 8.0 0.00 0.00 0.00 43 1020.3
20260508070732 12 18 1.6 3.2 0.00 0.00 0.00 42 1020.3
20260508070231 12 19 0.0 1.6 0.00 0.00 0.00 46 1020.3
20260508065727 11 40 1.6 4.8 0.00 0.00 0.00 42 1020.3
20260508065225 12 27 1.6 1.6 0.00 0.00 0.00 42 1020.3
20260508064723 12 1 0.0 1.6 0.00 0.00 0.00 44 1020.4
20260508064221 12 32 3.2 4.8 0.00 0.00 0.00 43 1020.3
20260508063718 11 11 0.0 0.0 0.00 0.00 0.00 45 1020.3
20260508063216 11 353 0.0 1.6 0.00 0.00 0.00 43 1020.2
20260508062713 11 72 3.2 3.2 0.00 0.00 0.00 43 1020.0
20260508062210 11 26 1.6 1.6 0.00 0.00 0.00 45 1020.0
20260508061707 10 31 1.6 1.6 0.00 0.00 0.00 48 1020.0
20260508061205 10 27 1.6 3.2 0.00 0.00 0.00 48 1019.8
20260508060702 10 49 1.6 3.2 0.00 0.00 0.00 50 1020.2
20260508060158 10 23 1.6 4.8 0.00 0.00 0.00 53 1020.0
20260508055654 10 40 0.0 1.6 0.00 0.00 0.00 61 1019.8
20260508055151 10 39 3.2 3.2 0.00 0.00 0.00 59 1019.9
20260508054647 10 16 0.0 1.6 0.00 0.00 0.00 61 1019.8
20260508054145 10 20 0.0 0.0 0.00 0.00 0.00 62 1019.9
20260508053642 10 13 0.0 1.6 0.00 0.00 0.00 62 1019.8
20260508053139 10 30 3.2 3.2 0.00 0.00 0.00 61 1019.9
20260508052637 10 45 3.2 3.2 0.00 0.00 0.00 61 1019.7
20260508052134 10 43 3.2 3.2 0.00 0.00 0.00 64 1019.6
20260508051630 10 1 0.0 1.6 0.00 0.00 0.00 65 1019.7
20260508051125 10 351 0.0 0.0 0.00 0.00 0.00 66 1019.7
20260508050621 9 4 0.0 0.0 0.00 0.00 0.00 67 1019.8
20260508050119 8 27 1.6 1.6 0.00 0.00 0.00 67 1019.7
20260508045615 8 20 1.6 1.6 0.00 0.00 0.00 70 1019.7
20260508045113 8 32 0.0 1.6 0.00 0.00 0.00 70 1019.7
20260508044610 8 21 0.0 1.6 0.00 0.00 0.00 69 1019.8
20260508044106 8 356 0.0 1.6 0.00 0.00 0.00 70 1019.9
20260508043603 9 1 0.0 0.0 0.00 0.00 0.00 68 1019.8
20260508043100 8 13 0.0 0.0 0.00 0.00 0.00 71 1019.6
20260508042557 7 42 0.0 1.6 0.00 0.00 0.00 73 1019.5
20260508042054 7 1 0.0 0.0 0.00 0.00 0.00 75 1019.6
20260508041550 7 18 0.0 1.6 0.00 0.00 0.00 74 1019.3
20260508041047 7 16 0.0 0.0 0.00 0.00 0.00 76 1019.3
20260508040544 7 13 0.0 0.0 0.00 0.00 0.00 79 1018.9
20260508040042 6 27 1.6 1.6 0.00 0.00 0.00 89 1019.0
20260508035538 6 324 0.0 0.0 0.00 0.00 0.00 94 1019.2
20260508035035 5 325 0.0 0.0 0.00 0.00 0.00 95 1019.1
20260508034532 5 324 0.0 0.0 0.00 0.00 0.00 95 1018.9
20260508034029 4 323 0.0 0.0 0.00 0.00 0.00 95 1019.0
20260508033527 4 323 0.0 0.0 0.00 0.00 0.00 96 1018.8
20260508033025 3 324 0.0 0.0 0.00 0.00 0.00 96 1018.8
20260508032521 3 323 0.0 0.0 0.00 0.00 0.00 96 1018.9
20260508032019 3 320 0.0 0.0 0.00 0.00 0.00 96 1018.7
20260508031516 3 320 0.0 0.0 0.00 0.00 0.00 96 1018.5
20260508031011 3 320 0.0 0.0 0.00 0.00 0.00 96 1018.5
20260508030509 3 317 0.0 0.0 0.00 0.00 0.00 96 1018.6
20260508030007 3 317 0.0 0.0 0.00 0.00 0.00 96 1018.6
20260508025502 3 317 0.0 0.0 0.00 0.00 0.00 96 1018.4
20260508024959 3 318 0.0 0.0 0.00 0.00 0.00 96 1018.6
20260508024455 3 320 0.0 0.0 0.00 0.00 0.00 96 1018.4
20260508023952 3 327 0.0 0.0 0.00 0.00 0.00 95 1018.2
20260508023449 2 326 0.0 0.0 0.00 0.00 0.00 95 1018.0
20260508022946 2 326 0.0 0.0 0.00 0.00 0.00 95 1018.3
20260508022442 2 326 0.0 0.0 0.00 0.00 0.00 95 1018.3
20260508021939 2 326 0.0 0.0 0.00 0.00 0.00 95 1018.3
20260508021435 2 326 0.0 0.0 0.00 0.00 0.00 95 1018.4
20260508020931 2 324 0.0 0.0 0.00 0.00 0.00 95 1018.2
20260508020429 2 325 0.0 0.0 0.00 0.00 0.00 95 1018.2
20260508015926 2 325 0.0 0.0 0.00 0.00 0.00 95 1018.1
20260508015424 2 325 0.0 0.0 0.00 0.00 0.00 95 1018.1
20260508014920 2 325 0.0 0.0 0.00 0.00 0.00 95 1018.1
20260508014417 2 325 0.0 0.0 0.00 0.00 0.00 95 1017.9
20260508013912 2 322 0.0 0.0 0.00 0.00 0.00 95 1018.0
20260508013409 2 318 0.0 0.0 0.00 0.00 0.00 95 1018.0
20260508012906 2 318 0.0 0.0 0.00 0.00 0.00 95 1018.0
20260508012403 2 318 0.0 0.0 0.00 0.00 0.00 94 1017.7
20260508011901 2 318 0.0 0.0 0.00 0.00 0.00 94 1017.7
20260508011359 2 319 0.0 0.0 0.00 0.00 0.00 94 1017.8
20260508010855 2 319 0.0 0.0 0.00 0.00 0.00 94 1017.7
20260508010353 2 318 0.0 0.0 0.00 0.00 0.00 94 1017.7
20260508005850 2 318 0.0 0.0 0.00 0.00 0.00 94 1017.7
20260508005346 2 318 0.0 0.0 0.00 0.00 0.00 94 1017.6
20260508004843 2 318 0.0 0.0 0.00 0.00 0.00 94 1017.6
20260508004339 2 318 0.0 0.0 0.00 0.00 0.00 94 1017.6
20260508003835 2 318 0.0 0.0 0.00 0.00 0.00 94 1017.4
20260508003333 2 318 0.0 0.0 0.00 0.00 0.00 94 1017.6
20260508002830 2 318 0.0 0.0 0.00 0.00 0.00 94 1017.3
20260508002326 2 318 0.0 0.0 0.00 0.00 0.00 94 1017.4
20260508001823 2 318 0.0 0.0 0.00 0.00 0.00 94 1017.3
20260508001319 2 318 0.0 0.0 0.00 0.00 0.00 93 1017.4
20260508000815 2 318 0.0 0.0 0.00 0.00 0.00 93 1017.2
20260508000312 2 319 0.0 0.0 0.00 0.00 0.00 93 1017.4
20260507235808 2 318 0.0 0.0 0.00 0.00 0.00 93 1017.4
20260507235307 2 318 0.0 0.0 0.00 0.00 0.00 93 1017.3
20260507234803 3 318 0.0 0.0 0.00 0.00 0.00 93 1017.3
20260507234259 3 319 0.0 0.0 0.00 0.00 0.00 93 1017.2
20260507233755 3 319 0.0 0.0 0.00 0.00 0.00 93 1017.2
20260507233253 3 319 0.0 0.0 0.00 0.00 0.00 93 1017.0
20260507232751 3 319 0.0 0.0 0.00 0.00 0.00 92 1016.9
20260507232248 3 319 0.0 0.0 0.00 0.00 0.00 92 1017.1
20260507231744 3 320 0.0 0.0 0.00 0.00 0.00 92 1016.7
20260507231241 3 320 0.0 0.0 0.00 0.00 0.00 92 1016.8
20260507230737 3 320 0.0 0.0 0.00 0.00 0.00 92 1016.7
20260507230235 3 319 0.0 0.0 0.00 0.00 0.00 92 1016.7
20260507225734 3 319 0.0 0.0 0.00 0.00 0.00 91 1016.6
20260507225231 3 319 0.0 0.0 0.00 0.00 0.00 91 1016.8
20260507224727 3 319 0.0 0.0 0.00 0.00 0.00 91 1016.7
20260507224224 3 319 0.0 0.0 0.00 0.00 0.00 91 1016.6
20260507223720 3 320 0.0 0.0 0.00 0.00 0.00 91 1016.3
20260507223217 3 323 0.0 0.0 0.00 0.00 0.00 90 1016.3
20260507222713 3 323 0.0 0.0 0.00 0.00 0.00 90 1016.4
20260507222210 4 323 0.0 0.0 0.00 0.00 0.00 90 1016.3
20260507221707 4 323 0.0 0.0 0.00 0.00 0.00 90 1016.3
20260507221203 4 323 0.0 0.0 0.00 0.00 0.00 89 1016.3
20260507220700 4 323 0.0 0.0 0.00 0.00 0.00 89 1016.1
20260507220158 4 323 0.0 0.0 0.00 0.00 0.00 89 1015.9
20260507215654 4 323 0.0 0.0 0.00 0.00 0.00 88 1016.0
20260507215152 4 323 0.0 0.0 0.00 0.00 0.00 88 1016.1
20260507214649 4 323 0.0 0.0 0.00 0.00 0.00 87 1016.0
20260507214145 4 323 0.0 0.0 0.00 0.00 0.00 87 1015.8
20260507213641 4 323 0.0 0.0 0.00 0.00 0.00 87 1015.7
20260507213138 4 317 0.0 0.0 0.00 0.00 0.00 86 1015.8
20260507212634 4 317 0.0 0.0 0.00 0.00 0.00 86 1015.8
20260507212131 4 317 0.0 0.0 0.00 0.00 0.00 86 1015.8
20260507211628 5 317 0.0 0.0 0.00 0.00 0.00 86 1015.8
20260507211123 5 317 0.0 0.0 0.00 0.00 0.00 85 1015.8
20260507210622 5 316 0.0 0.0 0.00 0.00 0.00 85 1015.7
20260507210118 5 316 0.0 0.0 0.00 0.00 0.00 85 1015.6
20260507205615 5 316 0.0 0.0 0.00 0.05 0.05 85 1015.9
20260507205111 5 317 0.0 0.0 0.00 0.05 0.05 84 1015.6
20260507204607 5 316 0.0 0.0 0.00 0.05 0.05 84 1015.5
20260507204105 5 319 0.0 0.0 0.00 0.05 0.05 84 1015.2
20260507203603 5 319 0.0 0.0 0.00 0.05 0.05 84 1015.4
20260507203100 5 319 0.0 0.0 0.00 0.05 0.05 83 1015.1
20260507202555 5 319 0.0 0.0 0.00 0.05 0.05 83 1015.3
20260507202052 5 319 0.0 0.0 0.00 0.05 0.05 83 1015.4
20260507201547 5 320 0.0 0.0 0.00 0.05 0.05 82 1015.1
20260507201044 5 323 0.0 0.0 0.00 0.05 0.05 82 1015.1
20260507200540 5 324 0.0 0.0 0.00 0.05 0.05 82 1015.0
20260507200036 5 324 0.0 0.0 0.00 0.05 0.05 82 1014.8
20260507195533 6 324 0.0 0.0 0.00 0.05 0.05 81 1014.9
20260507195031 6 324 0.0 0.0 0.00 0.05 0.05 81 1015.1
20260507194527 6 321 0.0 0.0 0.00 0.05 0.05 81 1014.9
20260507194023 6 321 0.0 0.0 0.00 0.05 0.05 80 1014.9
20260507193520 6 324 0.0 0.0 0.00 0.05 0.05 80 1014.5
20260507193017 6 325 0.0 0.0 0.00 0.05 0.05 80 1014.7
20260507192513 6 330 0.0 0.0 0.00 0.05 0.05 79 1014.5
20260507192010 6 330 0.0 0.0 0.00 0.05 0.05 79 1014.5
20260507191506 6 330 0.0 0.0 0.00 0.05 0.05 78 1014.4
20260507191003 6 331 0.0 0.0 0.00 0.05 0.05 77 1014.3
20260507190500 7 335 0.0 0.0 0.00 0.05 0.05 77 1014.5
20260507185959 7 328 0.0 0.0 0.00 0.05 0.05 77 1014.5
20260507185456 7 343 0.0 0.0 0.00 0.05 0.05 77 1014.3
20260507184953 7 332 0.0 0.0 0.00 0.05 0.05 77 1014.3
20260507184451 7 346 0.0 1.6 0.00 0.05 0.05 76 1014.4
20260507183949 7 328 0.0 0.0 0.00 0.05 0.05 76 1014.1
20260507183445 7 339 0.0 0.0 0.00 0.05 0.05 76 1014.0
20260507182942 7 332 0.0 0.0 0.00 0.05 0.05 74 1014.0
20260507182438 7 337 0.0 0.0 0.00 0.05 0.05 74 1013.8
20260507181934 7 292 0.0 0.0 0.00 0.05 0.05 73 1013.8
20260507181430 7 343 0.0 0.0 0.00 0.05 0.05 73 1013.7
20260507180927 7 349 0.0 0.0 0.00 0.05 0.05 73 1013.8
20260507180424 8 313 0.0 0.0 0.00 0.05 0.05 72 1013.8
20260507175920 8 349 0.0 0.0 0.00 0.05 0.05 71 1013.6
20260507175417 8 358 0.0 1.6 0.00 0.05 0.05 71 1013.9
20260507174914 8 347 0.0 0.0 0.00 0.05 0.05 70 1013.6
20260507174412 8 333 0.0 0.0 0.00 0.05 0.05 70 1013.5
20260507173909 8 353 0.0 0.0 0.00 0.05 0.05 68 1013.4
20260507173406 9 350 0.0 0.0 0.00 0.05 0.05 67 1013.5
20260507172902 9 335 0.0 0.0 0.00 0.05 0.05 66 1013.4
20260507172359 9 11 1.6 3.2 0.00 0.05 0.05 65 1013.2
20260507171855 9 358 0.0 0.0 0.00 0.05 0.05 64 1013.2
20260507171352 10 345 0.0 0.0 0.00 0.05 0.05 65 1013.4
20260507170849 10 340 0.0 0.0 0.00 0.05 0.05 64 1013.1
20260507170345 10 325 0.0 0.0 0.00 0.05 0.05 64 1012.9
20260507165842 10 343 0.0 0.0 0.00 0.05 0.05 63 1013.1
20260507165337 10 313 0.0 0.0 0.00 0.05 0.05 65 1012.9
20260507164834 10 338 0.0 0.0 0.00 0.05 0.05 63 1012.9
20260507164331 10 318 0.0 1.6 0.00 0.05 0.05 62 1012.9
20260507163828 10 342 0.0 0.0 0.00 0.05 0.05 62 1013.0
20260507163325 10 346 0.0 0.0 0.00 0.05 0.05 61 1012.8
20260507162821 10 232 1.6 3.2 0.00 0.05 0.05 58 1012.7
20260507162317 10 337 0.0 0.0 0.00 0.05 0.05 60 1012.5
20260507161815 10 32 0.0 0.0 0.00 0.05 0.05 59 1012.8
20260507161311 10 305 0.0 1.6 0.00 0.05 0.05 61 1012.5
20260507160808 10 3 0.0 0.0 0.00 0.05 0.05 61 1012.5
20260507160304 10 351 0.0 0.0 0.00 0.05 0.05 61 1012.4
20260507155759 10 8 0.0 0.0 0.00 0.05 0.05 60 1012.3
20260507155256 10 23 0.0 0.0 0.00 0.05 0.05 59 1012.2
20260507154752 11 9 0.0 1.6 0.00 0.05 0.05 58 1012.2
20260507154250 11 152 0.0 1.6 0.00 0.05 0.05 57 1012.5
20260507153746 11 355 1.6 1.6 0.00 0.05 0.05 60 1012.3
20260507153243 11 332 0.0 0.0 0.00 0.05 0.05 59 1012.3
20260507152740 10 339 0.0 0.0 0.00 0.05 0.05 63 1012.2
20260507152236 10 29 1.6 4.8 0.00 0.05 0.05 66 1012.2
20260507151732 10 4 1.6 1.6 0.00 0.05 0.05 67 1012.1
20260507151229 10 58 1.6 1.6 0.00 0.05 0.05 67 1012.1
20260507150726 10 306 1.6 1.6 0.00 0.05 0.05 69 1012.3
20260507150222 10 349 0.0 0.0 0.00 0.05 0.05 69 1012.2
20260507145718 10 18 0.0 0.0 0.00 0.05 0.05 70 1012.3
20260507145215 10 325 0.0 1.6 0.00 0.05 0.05 70 1012.1
20260507144712 10 1 1.6 3.2 0.00 0.05 0.05 71 1012.1
20260507144210 10 230 0.0 0.0 0.00 0.05 0.05 73 1012.0
20260507143706 10 310 0.0 0.0 0.00 0.05 0.05 73 1011.9
20260507143203 10 340 0.0 0.0 0.00 0.05 0.05 72 1012.0
20260507142659 10 7 1.6 1.6 0.00 0.05 0.05 73 1011.7
20260507142156 10 21 0.0 1.6 0.00 0.05 0.05 73 1011.8
20260507141652 10 309 0.0 0.0 0.00 0.05 0.05 73 1011.7
20260507141149 10 323 0.0 0.0 0.00 0.05 0.05 74 1011.8
20260507140645 10 280 0.0 1.6 0.00 0.05 0.05 74 1011.9
20260507140143 10 349 0.0 0.0 0.00 0.05 0.05 72 1012.0